FW2728 Weather Reports


Display with metric or nautical units.
time (UTC)temp
F
wind
direction
speed
MPH
gust
MPH
rain 1hr
in
rain 24hr
in
rain mn
in
humidity
%
barometer
mb
20260902012017 94 104 1.0 4.0 0.00 0.01 0.01 43 1013.0
20260902011016 94 100 1.0 3.0 0.00 0.01 0.01 43 1013.0
20260902010016 95 93 2.0 4.0 0.00 0.01 0.01 43 1012.9
20260902005017 95 90 2.0 5.0 0.00 0.01 0.01 42 1012.9
20260902004017 96 91 1.0 5.0 0.00 0.01 0.01 42 1012.9
20260902003036 96 81 2.0 6.0 0.00 0.01 0.01 41 1012.9
20260902002017 97 71 2.0 4.0 0.00 0.01 0.01 40 1013.0
20260902001017 97 89 2.0 6.0 0.00 0.01 0.01 39 1013.1
20260902000017 97 96 3.0 8.0 0.01 0.01 0.01 39 1013.1
20260901235037 98 113 2.0 5.0 0.01 0.01 0.01 39 1013.1
20260901234017 98 87 2.0 7.0 0.01 0.01 0.01 38 1013.2
20260901233018 98 106 3.0 8.0 0.01 0.01 0.01 39 1013.2
20260901232018 98 97 2.0 7.0 0.01 0.01 0.01 41 1013.2
20260901231016 100 139 3.0 9.0 0.01 0.01 0.01 38 1013.1
20260901230038 101 191 2.0 7.0 0.00 0.00 0.00 35 1013.1
20260901225016 101 87 2.0 7.0 0.00 0.00 0.00 35 1013.1
20260901224015 100 110 2.0 5.0 0.00 0.00 0.00 35 1013.2
20260901223016 100 98 3.0 8.0 0.00 0.00 0.00 35 1013.2
20260901222036 101 55 3.0 6.0 0.00 0.00 0.00 35 1013.2
20260901221036 101 111 1.0 5.0 0.00 0.00 0.00 35 1013.3
20260901220016 102 110 3.0 8.0 0.00 0.00 0.00 35 1013.3
20260901215016 101 126 2.0 8.0 0.00 0.00 0.00 34 1013.3
20260901214017 101 114 2.0 8.0 0.00 0.00 0.00 35 1013.5
20260901213016 101 100 3.0 7.0 0.00 0.00 0.00 35 1013.5
20260901212017 102 141 2.0 7.0 0.00 0.00 0.00 34 1013.6
20260901211017 102 88 2.0 7.0 0.00 0.00 0.00 34 1013.7
20260901210017 101 106 2.0 6.0 0.00 0.00 0.00 34 1013.8
20260901205037 101 140 1.0 5.0 0.00 0.00 0.00 35 1013.9
20260901204017 101 102 2.0 8.0 0.00 0.00 0.00 35 1014.0
20260901203017 101 125 2.0 5.0 0.00 0.00 0.00 34 1014.1
20260901202018 101 66 3.0 7.0 0.00 0.00 0.00 34 1014.2
20260901201018 101 55 2.0 6.0 0.00 0.00 0.00 34 1014.3
20260901200018 100 78 3.0 9.0 0.00 0.00 0.00 37 1014.4
20260901195015 101 114 3.0 9.0 0.00 0.00 0.00 35 1014.5
20260901194015 100 112 2.0 8.0 0.00 0.00 0.00 37 1014.7
20260901193015 99 209 2.0 5.0 0.00 0.00 0.00 37 1014.8
20260901192016 99 155 2.0 7.0 0.00 0.00 0.00 38 1015.0
20260901191016 98 93 3.0 9.0 0.00 0.00 0.00 39 1015.2
20260901190016 98 102 2.0 7.0 0.00 0.00 0.00 40 1015.3
20260901185016 97 155 1.0 4.0 0.00 0.00 0.00 41 1015.5
20260901184017 99 102 3.0 9.0 0.00 0.00 0.00 40 1015.7
20260901183016 98 99 2.0 7.0 0.00 0.00 0.00 39 1015.8
20260901182036 97 114 2.0 6.0 0.00 0.00 0.00 41 1016.0
20260901181017 98 84 2.0 6.0 0.00 0.00 0.00 41 1016.0
20260901180017 98 192 2.0 5.0 0.00 0.00 0.00 40 1016.2
20260901175037 98 327 1.0 5.0 0.00 0.00 0.00 41 1016.4
20260901174037 97 122 2.0 7.0 0.00 0.00 0.00 42 1016.6
20260901173018 96 104 3.0 6.0 0.00 0.00 0.00 43 1016.6
20260901172018 97 82 2.0 5.0 0.00 0.00 0.00 41 1016.8
20260901171018 96 266 2.0 6.0 0.00 0.00 0.00 44 1016.9
20260901170018 96 96 2.0 5.0 0.00 0.00 0.00 44 1017.0
20260901165018 95 133 2.0 6.0 0.00 0.00 0.00 45 1017.2
20260901164015 94 145 3.0 8.0 0.00 0.00 0.00 47 1017.3
20260901163055 94 217 2.0 5.0 0.00 0.00 0.00 47 1017.3
20260901162016 94 94 2.0 5.0 0.00 0.00 0.00 47 1017.3
20260901161036 93 102 2.0 5.0 0.00 0.00 0.00 49 1017.3
20260901160016 92 279 2.0 4.0 0.00 0.00 0.00 52 1017.3
20260901155016 92 207 2.0 6.0 0.00 0.00 0.00 52 1017.4
20260901154016 91 251 2.0 5.0 0.00 0.00 0.00 53 1017.3
20260901153016 90 169 1.0 2.0 0.00 0.00 0.00 54 1017.3
20260901152037 89 205 1.0 5.0 0.00 0.00 0.00 55 1017.3
20260901151017 89 190 2.0 5.0 0.00 0.00 0.00 56 1017.2
20260901150057 89 242 2.0 4.0 0.00 0.00 0.00 57 1017.3
20260901145037 88 234 1.0 5.0 0.00 0.00 0.00 58 1017.4
20260901144037 87 166 1.0 3.0 0.00 0.00 0.00 60 1017.5
20260901143017 87 200 2.0 4.0 0.00 0.00 0.00 61 1017.5
20260901142017 86 169 1.0 3.0 0.00 0.00 0.00 62 1017.5
20260901141018 85 233 1.0 5.0 0.00 0.00 0.00 64 1017.6
20260901140015 85 186 1.0 3.0 0.00 0.00 0.00 65 1017.5
20260901135018 84 193 0.0 2.0 0.00 0.00 0.00 65 1017.5
20260901134018 83 195 1.0 3.0 0.00 0.00 0.00 66 1017.5
20260901133016 82 145 1.0 3.0 0.00 0.00 0.00 68 1017.5
20260901132015 82 134 1.0 3.0 0.00 0.00 0.00 67 1017.5
20260901131016 81 89 0.0 2.0 0.00 0.00 0.00 68 1017.4
20260901130016 80 175 0.0 3.0 0.00 0.00 0.00 70 1017.2
20260901125016 79 197 1.0 3.0 0.00 0.00 0.00 71 1017.1
20260901124016 79 212 1.0 2.0 0.00 0.00 0.00 72 1017.0
20260901123016 79 195 0.0 1.0 0.00 0.00 0.00 72 1016.9
20260901122017 78 165 0.0 1.0 0.00 0.00 0.00 73 1016.7
20260901121017 78 221 0.0 2.0 0.00 0.00 0.00 73 1016.6
20260901120017 78 0.0 0.0 0.00 0.00 0.00 72 1016.6
20260901115017 78 0.0 0.0 0.00 0.00 0.00 72 1016.5
20260901114017 79 69 0.0 2.0 0.00 0.00 0.00 71 1016.6
20260901113017 79 84 1.0 2.0 0.00 0.00 0.00 71 1016.5
20260901112018 79 79 0.0 2.0 0.00 0.00 0.00 70 1016.4
20260901111015 79 66 0.0 1.0 0.00 0.00 0.00 69 1016.2
20260901110018 80 0.0 0.0 0.00 0.00 0.00 68 1016.1
20260901105018 80 224 1.0 3.0 0.00 0.00 0.00 67 1016.1
20260901104015 80 230 1.0 3.0 0.00 0.00 0.00 66 1016.1
20260901103015 81 206 0.0 2.0 0.00 0.00 0.00 66 1016.1
20260901102016 81 194 0.0 3.0 0.00 0.00 0.00 65 1016.0
20260901101016 81 214 1.0 3.0 0.00 0.00 0.00 64 1016.0
20260901100016 81 204 0.0 3.0 0.00 0.00 0.00 64 1016.1
20260901095016 81 207 1.0 3.0 0.00 0.00 0.00 63 1016.1
20260901094017 82 207 0.0 2.0 0.00 0.00 0.00 62 1016.2
20260901093019 82 219 1.0 4.0 0.00 0.00 0.00 61 1016.2
20260901092016 82 217 1.0 4.0 0.00 0.00 0.00 61 1016.2
20260901091017 82 218 2.0 5.0 0.00 0.00 0.00 60 1016.1
20260901090038 83 235 2.0 4.0 0.00 0.00 0.00 59 1016.0
20260901085017 83 220 2.0 5.0 0.00 0.00 0.00 59 1016.1
20260901084018 84 245 2.0 6.0 0.00 0.00 0.00 58 1016.1
20260901083018 84 218 2.0 4.0 0.00 0.00 0.00 58 1016.1
20260901082018 84 230 1.0 3.0 0.00 0.00 0.00 57 1016.2
20260901081018 85 206 2.0 8.0 0.00 0.00 0.00 56 1016.1
20260901080015 85 205 2.0 8.0 0.00 0.00 0.00 55 1016.0
20260901075015 85 198 2.0 6.0 0.00 0.00 0.00 55 1016.0
20260901074015 85 193 2.0 5.0 0.00 0.00 0.00 54 1015.9
20260901073036 86 162 2.0 6.0 0.00 0.00 0.00 53 1015.9
20260901072016 86 203 2.0 5.0 0.00 0.00 0.00 53 1015.8
20260901071016 86 178 2.0 5.0 0.00 0.00 0.00 52 1015.7
20260901070016 86 163 1.0 4.0 0.00 0.00 0.00 51 1015.6
20260901065037 86 182 1.0 4.0 0.00 0.00 0.00 50 1015.6
20260901064017 86 127 1.0 3.0 0.00 0.00 0.00 50 1015.5
20260901063016 86 135 1.0 5.0 0.00 0.00 0.00 49 1015.4
20260901062017 85 141 1.0 5.0 0.00 0.00 0.00 50 1015.4
20260901061018 84 129 1.0 3.0 0.00 0.00 0.00 50 1015.3
20260901060016 84 83 1.0 3.0 0.00 0.00 0.00 49 1015.1
20260901055035 84 120 0.0 1.0 0.00 0.00 0.00 49 1015.1
20260901054016 83 107 1.0 2.0 0.00 0.00 0.00 50 1015.0
20260901053015 83 72 0.0 2.0 0.00 0.00 0.00 50 1014.9
20260901052015 84 76 0.0 1.0 0.00 0.00 0.00 49 1014.7
20260901051056 84 0.0 0.0 0.00 0.00 0.00 49 1014.7
20260901050016 84 82 0.0 1.0 0.00 0.00 0.00 48 1014.8
20260901045016 85 48 0.0 1.0 0.00 0.00 0.00 47 1014.7
20260901044016 85 233 0.0 1.0 0.00 0.00 0.00 46 1014.7
20260901043016 86 110 0.0 1.0 0.00 0.00 0.00 45 1014.7
20260901042016 86 159 0.0 1.0 0.00 0.00 0.00 45 1014.7
20260901041016 87 119 0.0 1.0 0.00 0.00 0.00 44 1014.7
20260901040037 87 126 0.0 1.0 0.00 0.00 0.00 43 1014.7
20260901035017 87 118 0.0 2.0 0.00 0.00 0.00 42 1014.7
20260901034017 87 91 0.0 1.0 0.00 0.00 0.00 42 1014.7
20260901033017 88 81 0.0 0.0 0.00 0.00 0.00 41 1014.7
20260901032017 88 86 0.0 1.0 0.00 0.00 0.00 40 1014.6
20260901031038 89 125 0.0 1.0 0.00 0.00 0.00 40 1014.6
20260901030015 89 113 0.0 1.0 0.00 0.00 0.00 39 1014.5
20260901025018 89 103 0.0 1.0 0.00 0.00 0.00 38 1014.4
20260901024018 90 109 0.0 1.0 0.00 0.00 0.00 38 1014.3
20260901023016 90 230 0.0 1.0 0.00 0.00 0.00 39 1014.2
20260901022015 91 90 0.0 1.0 0.00 0.00 0.00 38 1014.1
20260901021036 91 147 0.0 1.0 0.00 0.00 0.00 37 1014.0
20260901020016 92 109 0.0 2.0 0.00 0.00 0.00 37 1013.8
20260901015017 93 113 0.0 2.0 0.00 0.00 0.00 37 1013.7
20260901014016 93 108 0.0 2.0 0.00 0.00 0.00 36 1013.6
20260901013016 94 109 1.0 3.0 0.00 0.00 0.00 35 1013.6